User: anonymous   Login
Location: Unspecified
(0.0000°N, 0.0000°E)
Time: 22:43:23
(UTC+00:00)
Language:

STARLINK-30775 - Orbit

View from above orbital plane
View from above orbital plane
View from above satellite
View from above satellite

Ground track
Ground track

The orbit is defined by the following mean orbital elements,

1 58139U          26145.46950878 +.00000000 +00000-0 -46338-4 0 00003
2 58139  43.0033  58.5213 0000635 279.7916  80.2864 15.27585263    02
Epoch (UTC): 25 May 2026 11:16:05
Eccentricity: 0.0000635
inclination: 43.0033°
perigee height: 483 km
apogee height: 483 km
right ascension of ascending node: 58.5213°
argument of perigee: 279.7916°
revolutions per day: 15.27585263
mean anomaly at epoch: 80.2864°

The dashed part of the orbit path shows where the satellite is in the earth's shadow,  

DLR